❰ Current Conditions

Special Weather Statement + 1 More Alert
Special Weather Statement
AREAS OF BLACK ICE THROUGH DAYBREAK ON UNTREATED ROADS AND WALKWAYS

Special Weather Statement issued February 8 at 4:29AM EST by NWS Boston/Norton MA

Temperatures near the freezing mark coupled with patchy ground fog will result in areas of black ice early this morning on untreated roads and walkways. Roads that appear wet may actually contain black ice. Motorists are urged to drive with extra caution early this morning. Temperatures should rise above freezing by mid morning and bringing an end to any black ice.
Special Weather Statement
AREAS OF BLACK ICE THROUGH DAYBREAK ON UNTREATED ROADS AND WALKWAYS

Special Weather Statement issued February 8 at 4:26AM EST by NWS Boston/Norton MA

Temperatures near the freezing mark coupled with patchy ground fog will result in areas of black ice early this morning on untreated roads and walkways. This is particularly true across interior Massachusetts and northern Connecticut. Roads that appear wet may actually contain black ice. Motorists are urged to drive with extra caution early this morning. Temperatures should rise above freezing by mid morning and bringing an end to any black ice.
NWS Regional Weather Roundup - New England Area
REGIONAL WEATHER ROUNDUP
NATIONAL WEATHER SERVICE BOSTON/NORTON MA
400 AM EST WED FEB 08 2023

NOTE:  "FAIR" INDICATES FEW OR NO CLOUDS BELOW 12,000 FEET WITH NO 
SIGNIFICANT WEATHER AND/OR OBSTRUCTIONS TO VISIBILITY.

MAZALL-081000-
EASTERN MASSACHUSETTS
  
CITY           SKY/WX    TMP DP  RH WIND       PRES   REMARKS
BOSTON         CLOUDY    37  33  85 SW12      30.01F WCI  29          
BEVERLY        CLOUDY    34  31  88 W5        29.99F WCI  30          
LAWRENCE       CLOUDY    33  30  88 SW6       30.01S WCI  28          
BEDFORD        CLOUDY    37  32  82 SW6       29.99S                  
NORWOOD        CLOUDY    38  33  82 SW7       30.02S                  
MARSHFIELD     CLOUDY    37  36  93 SW10G17   30.01S WCI  30          
PLYMOUTH       CLOUDY    38  35  89 SW8       30.02S                  
TAUNTON          N/A    N/A N/A N/A MISG      30.02S                  
NEW BEDFORD    MOCLDY    40  37  89 W8        30.03F                  
$$

MAZALL-081000-
CAPE COD AND THE ISLANDS
  
CITY           SKY/WX    TMP DP  RH WIND       PRES   REMARKS
FALMOUTH       NOT AVBL                                               
HYANNIS        CLOUDY    39  38  96 SW13      30.01S WCI  31          
CHATHAM        CLOUDY    41  36  82 SW9       30.03S                  
PROVINCETOWN   CLOUDY    39  37  92 W14       30.03R WCI  31          
NANTUCKET      PTCLDY    39  37  92 SW9       30.05F                  
MARTHAS VNYRD  MOCLDY    42  39  89 SW9       30.04F                  
$$
 
MAZALL-081000-
CENTRAL AND WESTERN MASSACHUSETTS
  
CITY           SKY/WX    TMP DP  RH WIND       PRES   REMARKS
WORCESTER      MOCLDY    34  31  88 SW10      29.97S WCI  26          
FITCHBURG      CLOUDY    36  30  79 VRB3      30.00S                  
ORANGE         CLOUDY    33  30  88 S7        30.00F WCI  27          
SPRINGFIELD    CLOUDY    33  33  99 CALM      30.00F                  
WESTFIELD      CLOUDY    30  29  96 CALM      30.02S FOG              
NORTH ADAMS    CLOUDY    35  32  88 W6        30.01S WCI  30          
PITTSFIELD     CLOUDY    32  31  96 CALM      29.98S FOG              
$$
 
RIZALL-081000-
RHODE ISLAND
  
CITY           SKY/WX    TMP DP  RH WIND       PRES   REMARKS
PROVIDENCE     PTCLDY    36  34  92 SW8       30.03F WCI  30          
NEWPORT        MOCLDY    38  36  92 W6        30.03F                  
BLOCK ISLAND   CLEAR     40  38  93 W13       30.06F                  
SMITHFIELD     CLEAR     35  34  96 W10       30.01F WCI  27          
WESTERLY       CLOUDY    40  38  93 SW5       30.05S                  
$$
 
CTZALL-081000-
CONNECTICUT
  
CITY           SKY/WX    TMP DP  RH WIND       PRES   REMARKS
BRADLEY INTL   PTCLDY    35  31  85 SW8       30.03S WCI  29          
HARTFORD       CLEAR     33  30  88 CALM      30.05S FOG              
BRIDGEPORT     CLEAR     35  33  92 W3        30.06F                  
DANBURY        CLEAR     30  26  85 CALM      30.06S FOG              
GROTON         MOCLDY    41  37  86 SW8       30.04F                  
NEW HAVEN      CLEAR     34  33  96 CALM      30.06S FOG              
CHESTER        FAIR      36  36 100 SW8G16    30.03F FOG     WCI  29  
MERIDEN        FOG       29  27  92 CALM      30.05S VSB 1            
WILLIMANTIC    FOG       29  28  96 NE3       30.04S VSB 3/4          
OXFORD         CLEAR     30  30 100 CALM      30.04S FOG              
$$

MEZ002-015-021-024-NHZ003-005-008-011-012-014-VTZ005-008-081000-
NORTHERN NEW ENGLAND
  
CITY           SKY/WX    TMP DP  RH WIND       PRES   REMARKS
PORTLAND ME    CLOUDY    28  25  88 W5        29.96F WCI  23          
BANGOR ME      CLOUDY    28  25  88 CALM      29.92F                  
CONCORD NH     CLOUDY    28  25  88 MISG      29.97S                  
MANCHESTER NH  CLOUDY    33  30  88 CALM      29.97S                  
NASHUA NH      CLOUDY    31  31 100 CALM      30.00S                  
PORTSMOUTH NH  CLOUDY    30  28  90 W3        29.97F                  
JAFFREY NH     CLOUDY    33  30  88 S3        29.96S                  
KEENE NH       CLOUDY    32  30  92 CALM        N/A                   
BURLINGTON VT  CLOUDY    35  30  82 SW7       29.97R WCI  29          
MT. WASHINGTON SNOW      18  18 100 W62         N/A  VSB 0   WCI  -8  
$$

NYZ052-076-081000-
EASTERN NEW YORK
  
CITY           SKY/WX    TMP DP  RH WIND       PRES   REMARKS
ALBANY         CLOUDY    36  30  79 CALM      30.04R                  
NEW YORK CITY  PTCLDY    40  32  73 SW6       30.07F                  
$$
 
ANZALL-081000-
MARINE OBSERVATIONS
  
STATION/POSITION TIME  TEMP    WIND        PRES    VSBY  WAVE
                       AIR SEA DIR/SP/G                  HT/PER
                 (UTC) (F)     (DEG/KT/KT) (MB)    (MI)  (FT/S)
BOSTON BUOY      0840      41                N/A           6/11
BUZZARDS BAY     0800   42     240/ 18/ 19 1018.1R
NANTUCKET SOUND  0850   40 37  240/ 10/ 12 1017.2F         2/ 3
MASS BAY-STELLWA 0704   38 41  230/ 16/ 19 1015.2F  1 7/8
ISLE OF SHOALS   0800   35     240/ 15/ 17 1014.8F
S OF BLOCK IS    0826      42                N/A           5/14
$$

......................KEY.........................
  SKY/WX - SKY CONDITION/PRESENT WEATHER
  TMP    - TEMPERATURE IN FAHRENHEIT
  DWPT   - DEWPOINT IN FAHRENHEIT
  RH     - RELATIVE HUMIDITY IN PERCENT
  WIND   - DIRECTION AND SPEED IN MPH
  PRES   - MEAN SEA LEVEL PRESSURE IN INCHES OF HG
  WCI    - WIND CHILL INDEX
  VSB    - VISIBILITY IN MILES
  HX     - HEAT INDEX
  TC     - TEMPERATURE IN CELSIUS
  VRB    - VARIABLE WIND DIRECTION
  N/A    - NOT AVAILABLE